Timeline UpdatesTrip UpdatesNews PostsPvt PostsTravel TipsAdmin PostsConv PostsFollowed PostsChat RequestsBlog PostsPNR Posts

Disclaimer
Search
 
 
Sun Sep 21, 2014 17:37:18 ISTHomeTrainsΣChainsAtlasPNRForumGalleryNewsFAQTripsMembersLoginFeedback
No Recent News for this Train
Other Trains in the News **new
Latest...
.
Thu Jul 24, 2014 (11:10PM)
⇐ Return Journey: Train# 19019

19020/Dehradun - Mumbai Bandra Terminus Express

Time-Table HAS CHANGED.
Sep 03 (11:17AM)
Change Departure Station:
Change Arrival Station:
Post a Train Travel TipPost a Train Travel Tip **new
Post a Comment/Question/Picture/VideoPost a Comment/Question/Picture/Video
Pantry/Catering
✕ NO Pantry Car
✓ Catering Avbl
Loco/Rake Reversals
SRE/Saharanpur Junction (6); LRJ/Laksar Junction (4);
RSA - Rake Sharing
Rake/Coach Composition
LOCO-SLR-HCPV-GEN-GEN-AB1-S1-S2-S3-S4-S5-S6-S7-S8-S9-SLR
Loco
GZB WAP-7 NZM-BDTS. ddn to nzm tkd wdp 3a. By Er...
Read more...
Ankit Shotra Bhagat Entry# 595554
News    PNR    Forum    Time-Table    Availability    Fare Chart    Map    Arr/Dep History    Trips    Gallery    ΣChains    X/O    Timeline    
Travel Time: 13h 21m    30 halts    Distance: 615 km    Avg Speed: 46 km/hr
Type: Mail/Express
Zone: WR/Western
Departs @ 14:59
Platform# ???
SMTWTFS
Raoti/RTI 
Arrives @ 04:20 +1 night
Platform# 1
SMTWTFS
Mumbai Bandra Terminus/BDTS 

30 halts. 108 intermediate Stations between Raoti and Mumbai Bandra Terminus

Show ALL intermediate Stations  Show Old Time-Table

#CodeStation NameX/OArrivesAvgDepartsAvgHaltPFDay#KmSpeedElevZoneAddress
1DDNDehradun (4)  -10:35 10:30-21-1066.638648mNRDehradun, Uttarakhand
2DWODoiwala  11:04 11:01-11:06 11:03-2m--1-1046.841484mNRDehradun, Uttarakhand
3RWLRaiwala Junction (2)X  11:38 11:33-11:40 11:35-2m21-1026.117361mNRRishikesh, Uttarakhand
4MOTCMotichur (2)  12:00 11:58-12:02 12:00-2m11-1019.518312mNRHaridwar, Uttarakhand
5HWHaridwar Junction (9)X  12:15-12:45-30m31-1015.048294mNRHaridwar, Uttarakhand
6JWPJwalapur  12:53 12:50-12:55 12:52-2m--1-1011.020292mNRHaridwar, Uttarakhand
7LRJLaksar Junction (4)X14:00-14:25-25m--1-988.053238mNRLaksar, Uttarakhand
8RKRoorkee (3)X  14:43 14:45-14:45 14:50-2 5m31-970.246264mNRRoorkee - 247667, Uttarakhand
9SRESaharanpur Junction (6)X15:35-16:05-30m41-935.548276mNRSaharanpur, Uttar Pradesh
10DBDDeoband (2)  16:50 16:48-16:52 16:50-2m21-901.344258mNRSaharanpur, Uttar Pradesh
11MOZMuzaffarnagar (3)X  17:20 17:23-17:22 17:25-2m21-877.363247mNRMuzaffarNagar, Uttar Pradesh
12KATKhatauli (2)  17:42 17:46-17:44 17:48-2m11-855.276239mNRKhatauli, Uttar Pradesh
13MUTMeerut Cantt. (2)  18:08 18:11-18:10 18:13-2m11-826.112230mNRMeerut, Uttar Pradesh
14MTCMeerut City Junction (6)X18:35-19:20-45m41-821.773229mNRMeerut, Uttar Pradesh
15MDNRModinagar (2)X  19:34 19:36-19:36 19:38-2m21-802.355221mNRGhaziabad, Uttar Pradesh
16MUDMuradnagar (2)X  19:45 19:49-19:47 19:51-2m21-792.259220mNRGhaziabad, Uttar Pradesh
17GZNNew Ghaziabad (2)XO  20:02 20:03-20:04 20:05-2m21-780.414213mNRGhaziabad, Uttar Pradesh
18GZBGhaziabad Junction (6)XO  20:30 20:31-20:32 20:33-2m41-774.534217mNRGhaziabad, Uttar Pradesh
19SBBSahibabad Junction (5)X  20:41 20:45-20:43 20:46-2 1m--1-767.833209mNRGhaziabad, Uttar Pradesh
20NZMDelhi Hazrat Nizamuddin (7)O21:15-21:55-40m11-751.825209mNRNew Delhi 110013, Delhi NCT
21TKDTuglakabad (4)XO  22:18-22:20-2m--1-742.144213mNRNear Tughlakabad Metro Station, Delhi NCT
22FDBFaridabad (4)O  22:44 22:35-22:46 22:36-2 1m31-731.035206mNRold Faridabad, Haryana
23BVHBallabgarh (5)X  22:58 22:50-23:00 22:52-2m--1-722.929203mNRFaridabad, Haryana
24PWLPalwal (8)X  23:36-23:38-2m--1-701.785200mNRPalwal, Haryana
25KSVKosi Kalan (3)O  00:08-00:10-2m22-659.329189mNCRKosi Kalan, Uttar Pradesh
26MTJMathura Junction (10)XO  01:35-01:45 01:40-10 5m32-617.861179mNCRMathura, Uttar Pradesh
27BTEBharatpur Junction (5)  02:10 02:13-02:15-5 2m--2-584.384174mWCRBharatpur, Rajasthan
28BXNBayana Junction (3)X  02:45-02:47-2m--2-542.370198mWCRBayana, Rajasthan
29HANHindaun City (2)  03:15-03:17-2m--2-509.456230mWCRKarauli, Rajasthan
30SMBJShri Mahabirji (3)O  03:26 03:28-03:28 03:30-2m--2-499.241240mWCRKarauli, Rajasthan
31GGCGangapur City (3)  04:10 04:20-04:20 04:25-10 5m--2-465.163270mWCRGangapur, Rajasthan
32MLZMalarnaX  04:50 04:57-04:52 04:59-2m--2-431.486236mWCRSawai Madhopur, Rajasthan
33SWMSawai Madhopur Junction (4)X  05:20-05:25-5m--2-401.278266mWCRSawai Madhopur, Rajasthan
34IDGIndargarh Sumerganj Mandi (2)X  05:48 05:53-05:50 05:55-2m--2-365.066247mWCRIndargarh, Rajasthan
35LKELakheri (3)  05:58 06:05-06:00 06:07-2m--2-354.069228mWCRBundi, Rajasthan
36KPTNKeshorai PatanXO  06:38 06:48-06:40 06:50-2m--2-306.953243mWCRSH 33, Rajasthan
37GQLGurlaO  06:48 06:59-06:50 07:00-2 1m--2-298.911251mWCRSH 33, Rajasthan
38KOTAKota Junction (5)X07:30-07:50-20m22-293.533256mWCRKota, Rajasthan
39DKNTDakaniya Talav (2)  08:01 08:07-08:03 08:08-2 1m22-284.279278mWCRKota, Rajasthan
40DARADara  08:30 08:37-08:32 08:39-2m--2-246.163354mWCRDara, Rajasthan
41MKXMorak (2)X  08:48 08:53-08:50 08:55-2m--2-231.342337mWCRMorak, Rajasthan
42RMARamganj Mandi Junction (3)  09:03 09:08-09:05 09:10-2m--2-222.357358mWCRRamganj Mandi, Rajasthan
43JHWJhalawar Road (3)  09:18 09:23-09:20 09:25-2m--2-209.955361mWCRJhalawar City, Rajasthan
44BWMBhawani Mandi (3)  09:38 09:43-09:40 09:45-2m--2-193.476384mWCRBhawani Mandi, Madhya Pradesh
45GOHGaroth (2)X  09:58 10:03-10:00 10:05-2m12-170.828441mWCRMadhya Pradesh 458880, Madhya Pradesh
46SGZShamgarh (3)X  10:25 10:28-10:30-5 2m--2-159.967463mWCRMandsaur, Madhya Pradesh
47SVASuwasra (2)  10:42-10:44-2m--2-146.566450mWCRSuwasra, Madhya Pradesh
48CMUChau Mahla (3)  10:58-11:00-2m12-131.135426mWCRJhalawar, Rajasthan
49THURThuriaX  11:24-11:26-2m--2-117.021430mWCRMDR 45, Madhya Pradesh
50VMAVikramgarh Alot (2)X  11:48-11:50-2m12-109.361443mWCRKota Division, Madhya Pradesh
51LNRLuni Richha  12:03-12:05-2m--2-96.028471mWCRAlote, Madhya Pradesh
52MEPMahidpur Road  12:28-12:30-2m--2-85.429493mWCRGogapur, Madhya Pradesh
53NADNagda Junction (4)  13:05-13:15-10m--2-68.464468mWRNagda, Madhya Pradesh
54KUHKhachrod (2)  13:26 13:28-13:28 13:30-2m--2-54.657497mWRUjjain, Madhya Pradesh
55RNHRunkheraX  13:39 13:41-13:41 13:42-2 1m--2-44.155478mWRUjjain, Madhya Pradesh
56BODBangrodX  13:48 13:50-13:50 13:51-2 1m--2-36.725484mWRRatlam, Madhya Pradesh
57RTMRatlam Junction (7)X  14:15-14:35-20m42-26.970495mWRRatlam, Madhya Pradesh
58RTIRaoti (2)»  14:56 14:58-14:58 14:59-2 1m--20.065409mWRState Highway 39A, Madhya Pradesh
59BOGBhairongarh (2)  15:08 15:10-15:10 15:11-2 1m--211.945374mWRBhairongarh Railway Station, Madhya Pradesh
60BMIBamnia (2)  15:17 15:19-15:19 15:21-2m--217.842392mWRBamnia, Madhya Pradesh
61AGRAmargarh (2)  15:25 15:27-15:27 15:28-2 1m--222.052410mWRSH 39A, Madhya Pradesh
62PCNPanch Pipila (2)  15:37 15:39-15:39 15:40-2 1m--231.576369mWRSH 39A, Madhya Pradesh
63THDRThandla Road (2)  15:49 15:51-15:51 15:53-2m--245.460317mWRJhabua, Madhya Pradesh
64MGNMeghnagar (3)  15:59 16:01-16:01 16:03-2m--253.473317mWRJhabua, Madhya Pradesh
65ANASAnas (2)  16:13 16:15-16:15 16:16-2 1m--267.968288mWRMadhya Pradesh 389154 ?, Madhya Pradesh
66BIOBordi (2)  16:21 16:23-16:23 16:24-2 1m--275.958289mWRNational Highway 59, Gujarat
67DHDDahod (3)  16:35-16:40 16:37-5 2m--286.564313mWRDahod, Gujarat
68LMKLimkheda  17:06 17:08-17:08 17:09-2 1m--2119.460205mWRLimkheda, Gujarat
69PPDPiplod Junction  17:15 17:17-17:17 17:19-2m--2127.479209mWRPiplod, Gujarat
70SATSant Road (2)X  17:26 17:28-17:28 17:30-2m22139.220169mWROrwara, Gujarat
71GDAGodhra Junction (3)X  18:30-18:35-5m102159.654122mWRGodhra, Gujarat
72KRSAKharsaliya (2)  18:45 18:47-18:47 18:48-2 1m--2170.576107mWRPanchmahal, Gujarat
73DRLDerolX  18:56 18:58-18:58 19:00-2m12183.26881mWRKalol, Gujarat
74CPNChampaner Road JunctionO  19:09 19:11-19:11 19:13-2m--2195.77578mWRPanchmahal, Gujarat
75SMLASamlaya Junction (3)X  19:20 19:22-19:22 19:24-2m--2206.95267mWRVadodara, Gujarat
76BRCVadodara Junction (7)  19:55-20:05-10m32233.58136mWRVadodara 390005, Gujarat
77MYGMiyagam Karjan (2)  20:25 20:27-20:27 20:28-2 1m--2263.37029mWRKarjan, Gujarat
78BHBharuch Junction (5)X  21:01 21:03-21:03 21:05-2m42304.06219mWRBharuch, Gujarat
79AKVAnkleshwar Junction (4)X  21:12 21:14-21:14 21:16-2m22313.39319mWRAnkleshwar, Gujarat
80KSBKosamba Junction (3)X21:29 21:28-21:31 21:30-2m--2331.93130mWRKosamba, Gujarat
81STSurat (4)X  22:30-22:38-8m22363.37419mWRSurat 395001, Gujarat
82NVSNavsari (3)  23:03 23:02-23:05-2 3m--2392.97914mWRNavsari, Gujarat
83BIMBilimora Junction (4)X  23:21-23:23-2m--2414.13611mWRBilimora, Gujarat
84BLValsad (3)  23:53-23:55-2m32432.03815mWRValsad, Gujarat
85VAPIVapi (3)X  00:36-00:38-2m--3458.26827mWRVapi, Gujarat
86PLGPalghar (3)X  02:04 01:50-02:06 02:02-2 12m--3539.73519mWRPalghar, Maharashtra
87VRVirar (8)  02:56-02:58-2m--3570.9536mWRDist. Palghar, Maharashtra
88BVIMumbai Borivali (8)  03:30 03:27-03:32-2 5m53596.72319mWRMumbai - 400092, Maharashtra
89BDTSMumbai Bandra Terminus (5)•  04:20--13615.4-4mWRMumbai 400050, Maharashtra
Scroll to Top
Scroll to Bottom